Unicom:                    122.8

AWOS:                  118.275

Elevation           1458’ MSL

TPA:                   2500’ MSL

06/24:         5003’ L   75’ W

PAPI:       06/Left     24/Left

(Operate lights on unicom freq.)

Traffic Pattern: Left

Beacon: Sunset to Sunrise

Windsock: yes, lighted

Segmented Circle: No

 

Cleveland Center: 126.72/291.65

FSS: Altoona

[Source: ADDS]
METAR
KFKL 200556Z AUTO 00000KT 10SM CLR 17/17 A3013 RMK AO2 SLP194 6//// T01670167 10239 20167 $ =
KFKL 200520Z 2006/2106 18002KT P6SM SKC FM201400 16005KT P6SM BKN200 FM210300 18004KT P6SM VCTS BKN050CB
TAF
KFKL 200520Z 2006/2106 18002KT P6SM SKC FM201400 16005KT P6SM BKN200 FM210300 18004KT P6SM VCTS BKN050CB =
[Source: ADDS]
METAR
KDUJ 200553Z AUTO 09003KT 10SM CLR 19/14 A3014 RMK AO2 SLP192 T01890144 10244 20183 51006 =
KDUJ 200520Z 2006/2106 18002KT P6SM SKC FM201400 16004KT P6SM BKN080 FM210400 15004KT P6SM VCSH BKN080
TAF
KDUJ 200520Z 2006/2106 18002KT P6SM SKC FM201400 16004KT P6SM BKN080 FM210400 15004KT P6SM VCSH BKN080 =

Flight Training.

                                    - 


                                                                                                      Bill Guth - CFI/ CFII/MEI

                                                                                                              814-229-5974

                                                                                                             Facebook Page


Practice Test Questions:                   http://www.exams4pilots.org/           http://www.airsafetyinstitute.org/tol_abortpoint 

                                                             http://www.mypilottests.com/           http://www.sportys.com/studybuddy


Flight Training Videos:                      http://www.rogerdodger.net/flighttraining/home.html

                                                            http://pilottutor.org/                              http://www.123pilot.com/

                                                            http://www.airsafetyinstitute.org/tol_abortpoint